Regional Weather Roundup
Issued by NWS State College, PA

Home | Current Version | Previous Version | Text Only | Print | Product List | Glossary Off
Versions: 1 2 3 4 5 6 7 8 9 10 11 12 13 14 15 16 17 18 19 20 21 22 23 24 25 26 27 28 29 30 31 32 33 34 35 36 37 38 39 40 41 42 43 44 45 46 47 48 49 50

000
ASUS41 KCTP 260603
RWRCTP

REGIONAL WEATHER ROUNDUP
NATIONAL WEATHER SERVICE STATE COLLEGE PA
200 AM EDT WED JUL 26 2017

Note: "fair" indicates few or no clouds below 12,000 feet with no
significant weather and/or obstructions to visibility.

* = STATION THAT DOES NOT REPORT PRECIPITATION /E.G. RAIN...SNOW...ETC/
    THUNDER OR FOG.

PAZ002>004-007>009-013>016-020>023-029>032-260700-
WESTERN PENNSYLVANIA

CITY           SKY/WX    TMP DP  RH WIND       PRES   REMARKS
ERIE           CLEAR     58  54  86 SE6       30.22S
MEADVILLE      CLEAR     58  55  90 VRB3      30.23S
FRANKLIN*      CLEAR     55  52  88 E5        30.24F
NEW CASTLE     FAIR      57  56  96 CALM      30.22F
BEAVER COUNTY  NOT AVBL
BUTLER*        CLEAR     57  55  94 NE6       30.22S
PITTSBURGH INT CLEAR     62  60  93 CALM      30.21F
PITTSBURGH     CLEAR     62  57  83 S5        30.21S
INDIANA*       NOT AVBL
LATROBE        CLEAR     59  59 100 CALM      30.23F
WASHINGTON CO* MOCLDY    55  54  94 CALM      30.21F VSB 1/2
$$

PAZ004>006-010>012-017>019-024>028-033>037-041-042-045-046-049>053-260700-
CENTRAL PENNSYLVANIA

CITY           SKY/WX    TMP DP  RH WIND       PRES   REMARKS
BRADFORD       CLEAR     52  51  97 CALM      30.25F
DUBOIS         CLOUDY    54  52  93 E6        30.24F
CLEARFIELD     CLOUDY    53  53 100 N6        30.26F
JOHNSTOWN      MOCLDY    59  54  83 CALM      30.26S
ALTOONA        FOG       55  55 100 CALM      30.25F VSB 1
STATE COLLEGE  CLOUDY    57  56  97 CALM      30.25S
WILLIAMSPORT   CLEAR     60  58  92 NW3       30.23S
SELINSGROVE    CLEAR     59  58  96 CALM      30.24S
FT INDIANTOWN  CLOUDY    65  59  81 E5        30.22S
CAPITAL CITY   MOCLDY    69  57  65 N3        30.21F
HARRISBURG     MOCLDY    68  59  73 N3        30.21S
YORK           PTCLDY    64  63  96 W3        30.22S
$$

PAZ038>040-043-044-047-048-054-055-060>062-067>071-260700-
EASTERN PENNSYLVANIA

CITY           SKY/WX    TMP DP  RH WIND       PRES   REMARKS
SCRANTON       CLOUDY    64  59  83 CALM      30.24F
MOUNT POCONO   FOG       58  58 100 E5        30.26S VSB 1
ALLENTOWN      HVY RAIN  66  63  90 E9        30.23S FOG
QUAKERTOWN*    CLOUDY    64  64 100 CALM      30.24S
READING        HVY RAIN  67  64  90 N7        30.21S
LANCASTER      CLOUDY    68  65  90 CALM      30.22S
COATESVILLE    CLOUDY    66  64  94 CALM      30.24S
POTTSTOWN      CLOUDY    65  64  97 E3        30.24S
BLUE BELL      CLOUDY    63  63 100 CALM      30.24S
DOYLESTOWN     CLOUDY    64  64 100 CALM      30.22S
WILLOW GROVE   NOT AVBL
NORTH PHILA    CLOUDY    68  63  84 NE3       30.23S
PHILADELPHIA   CLOUDY    68  63  84 NE6       30.22S
$$



USA.gov is the U.S. government's official web portal to all federal, state and local government web resources and services.